Location: *
(33.8649°S, 62.1526°E)
Time: 04:37:58
(UTC+00:00)

Cosmos 2227 Rocket - Pass Details

Date: 17 January 2021
Orbit: 837 x 846 km, 71.0° (Epoch: 27 February)

Event Time Altitude Azimuth Distance (km) Brightness Sun altitude
Exits shadow 22:55:37 16° 20° (NNE) 2,054 3.9 -21.6°
Maximum altitude 22:59:26 35° 76° (ENE) 1,340 3.5 -21.1°
Drops below altitude 10° 23:04:33 10° 140° (SE) 2,482 5.8 -20.3°
Sets 23:07:11 0° 148° (SSE) 3,423 6.8 -19.9°
